Location: Colebrook
(42.0017°N, 73.0973°W)
Time: 20:11:52
(UTC-04:00)

ISS - Pass Details

Date: 03 October 2021
Orbit: 417 x 423 km, 51.6° (Epoch: 21 October)

Event Time Altitude Azimuth Distance (km) Brightness Sun altitude
Rises 20:32:42 0° 299° (WNW) 2,364 1.4 -23.4°
Reaches altitude 10° 20:34:53 10° 291° (WNW) 1,498 0.1 -23.8°
Enters shadow 20:37:21 33° 252° (WSW) 721 -2.2 -24.2°
